Weather History for Liberia, Costa Rica

Change the Weather History Date:

Tuesday, February 19, 2013

  Actual Average Record
Temperature  
Mean Temperature 82 °F -  
Max Temperature 93 °F 91 °F - ()
Min Temperature 71 °F 75 °F - ()
Cooling Degree Days 17    
Growing Degree Days 32 (Base 50)    
Moisture  
Dew Point 60 °F    
Average Humidity 43    
Maximum Humidity 65    
Minimum Humidity 23    
Precipitation  
Precipitation 0.00 in - - ()
Sea Level Pressure  
Sea Level Pressure 29.81 in    
Wind  
Wind Speed 17 mph ()    
Max Wind Speed 30 mph    
Max Gust Speed 41 mph    
Visibility 10.1 miles    
Events      
T = Trace of Precipitation, MM = Missing Value Source: Averaged Metar Reports

Daily Weather History Graph

Daily Weather History Graph

Search for Another Location

Airport:

Trip Planner

Search our weather history database for the weather conditions in past years. The results will help you decide how hot, cold, wet, or windy it might be!

Date:

Astronomy

Feb. 19, 2013 Rise Set
Actual Time 6:00 AM CST 5:51 PM CST
Civil Twilight 5:39 AM CST 6:12 PM CST
Nautical Twilight 5:14 AM CST 6:37 PM CST
Astronomical Twilight 4:50 AM CST 7:01 PM CST
Moon 12:53 PM CST (2/19) 1:01 AM CST (2/19)
Length of Visible Light 12h 32m
Length of Day
11h 50m
Waxing Gibbous, 67% of the Moon is Illuminated
Feb 19
Waxing Gibbous
Feb 25
Full
Mar 4
Last Quarter
Mar 11
New
Mar 19
First Quarter

Hourly Weather History & Observations

Time (CST) Temp. Heat Index Dew Point Humidity Pressure Visibility Wind Dir Wind Speed Gust Speed Precip Events Conditions
6:00 AM 74 °F - 61 °F 54% 29.82 in 12 mi East 5.8 mph - -   Clear
6:00 AM 73.4 °F - 60.8 °F 65% 29.81 in - East 5.8 mph - N/A   Clear
7:00 AM 77.0 °F - 60.8 °F 57% 29.82 in - ENE 16.1 mph - N/A   Clear
8:00 AM 82.4 °F 82.9 °F 60.8 °F 48% 29.83 in - ENE 26.5 mph 38.0 mph N/A   Clear
9:00 AM 84 °F - 61 °F 35% 29.86 in 12 mi ENE 29.9 mph - -  
9:00 AM 84.2 °F 84.4 °F 60.8 °F 45% 29.85 in - ENE 29.9 mph 41.4 mph N/A   Clear
10:00 AM 87.8 °F 87.1 °F 59.0 °F 38% 29.85 in - ENE 26.5 mph - N/A   Clear
11:00 AM 87.8 °F 87.1 °F 59.0 °F 38% 29.84 in - NE 26.5 mph 38.0 mph N/A   Clear
12:00 PM 89 °F - 60 °F 27% 29.83 in 12 mi NE 26.5 mph - -  
12:00 PM 89.6 °F 88.9 °F 59.0 °F 36% 29.81 in - NE 26.5 mph - N/A   Clear
1:00 PM 89.6 °F 88.9 °F 59.0 °F 36% 29.79 in 6.2 mi ENE 19.6 mph - N/A   Partly Cloudy
2:00 PM 91.4 °F 90.7 °F 59.0 °F 34% 29.76 in 6.2 mi ENE 20.7 mph 32.2 mph N/A   Partly Cloudy
2:53 PM 93.2 °F 92.6 °F 59.0 °F 32% 29.75 in - ENE 20.7 mph - N/A   Clear
3:00 PM 92 °F - 59 °F 23% 29.76 in 12 mi ENE 20.7 mph - -  
3:00 PM 93.2 °F 92.6 °F 59.0 °F 32% 29.75 in - ENE 20.7 mph - N/A   Clear
4:00 PM 89.6 °F 89.5 °F 60.8 °F 38% 29.74 in - NE 21.9 mph - N/A   Clear
5:00 PM 87.8 °F 86.5 °F 57.2 °F 35% 29.75 in - NE 20.7 mph - N/A   Clear
7:00 PM 80.6 °F 81.1 °F 59.0 °F 48% 29.81 in - ENE 20.7 mph - N/A   Clear
9:00 PM 78.8 °F - 60.8 °F 54% 29.82 in - ENE 19.6 mph 31.1 mph N/A   Clear
10:00 PM 77.0 °F - 62.6 °F 61% 29.83 in - East 20.7 mph - N/A   Clear
11:00 PM 77.0 °F - 60.8 °F 57% 29.84 in - ENE 21.9 mph - N/A   Clear